Location: Miramichi City (Newcastle)
(46.9830°N, 65.5670°W)
Time: 22:00:59
(UTC-03:00)

Iridium 12 - Visible Passes

Search period start: 21 April 2018 00:00
Search period end: 01 May 2018 00:00
Orbit: 761 x 765 km, 86.4° (Epoch: 21 April)

Date Brightness Start Highest point End Pass type
(mag) Time Alt. Az. Time Alt. Az. Time Alt. Az.
21 Apr 7.2 01:19:40 23° ENE 01:19:40 23° ENE 01:23:06 10° NNE visible
21 Apr 6.2 02:59:49 43° WNW 02:59:49 43° WNW 03:04:06 10° N visible
22 Apr 7.8 00:41:54 13° ENE 00:41:54 13° ENE 00:43:49 10° NE visible
22 Apr 5.8 02:22:03 64° N 02:22:03 64° N 02:26:25 10° N visible
22 Apr 7.6 04:02:13 12° WNW 04:02:28 13° WNW 04:04:39 10° NW visible
23 Apr 6.3 01:44:17 44° ENE 01:44:17 44° ENE 01:48:26 10° NNE visible
23 Apr 7.0 03:24:26 23° WNW 03:24:26 23° WNW 03:28:17 10° NNW visible
24 Apr 7.1 01:06:30 25° ENE 01:06:30 25° ENE 01:10:06 10° NNE visible
24 Apr 6.2 02:46:40 41° WNW 02:46:40 41° WNW 02:51:00 10° N visible
25 Apr 7.7 00:28:43 14° ENE 00:28:43 14° ENE 00:31:00 10° NE visible
25 Apr 5.7 02:08:53 66° NNW 02:08:53 66° NNW 02:13:21 10° N visible
25 Apr 7.7 03:49:02 11° WNW 03:49:27 12° WNW 03:51:13 10° NW visible
26 Apr 6.1 01:31:05 48° ENE 01:31:05 48° ENE 01:35:24 10° NNE visible
26 Apr 7.1 03:11:15 22° WNW 03:11:15 22° WNW 03:15:06 10° NNW visible
27 Apr 6.9 00:53:18 27° ENE 00:53:18 27° ENE 00:57:07 10° NNE visible
27 Apr 6.3 02:33:27 39° WNW 02:33:27 39° WNW 02:37:53 10° N visible
28 Apr 7.6 00:15:30 15° ENE 00:15:30 15° ENE 00:18:09 10° NE visible
28 Apr 5.7 01:55:39 68° NNW 01:55:39 68° NNW 02:00:16 10° N visible
28 Apr 7.7 03:35:49 10° WNW 03:36:27 11° WNW 03:37:38 10° NW visible
29 Apr 6.0 01:17:51 53° ENE 01:17:51 53° ENE 01:22:21 10° NNE visible
29 Apr 7.2 02:58:00 20° WNW 02:58:07 20° WNW 03:01:55 10° NNW visible
30 Apr 6.8 00:40:02 29° ENE 00:40:02 29° ENE 00:44:07 10° NNE visible
30 Apr 6.4 02:20:12 37° WNW 02:20:12 37° WNW 02:24:45 10° NNW visible
